GW0206 Weather Reports


time (UTC)temp
F
wind
direction
speed
knots
gust
knots
rain 1hr
in
rain 24hr
in
rain mn
in
humidity
%
barometer
mb
20260506051004 48 201 2.6 5.2 0.08 0.68 0.11 96 1007.9
20260506050505 48 233 1.7 7.8 0.08 0.67 0.10 95 1007.9
20260506045006 48 205 1.7 6.1 0.10 0.66 0.09 95 1008.1
20260506044533 48 169 2.6 5.2 0.10 0.65 0.08 95 1008.2
20260506044008 48 210 2.6 6.1 0.10 0.64 0.07 95 1008.2
20260506043513 48 211 1.7 6.1 0.10 0.64 0.07 95 1008.2
20260506043023 48 205 1.7 7.8 0.10 0.63 0.06 95 1008.2
20260506042509 48 190 2.6 8.7 0.10 0.62 0.05 95 1008.3
20260506042010 48 212 3.5 8.7 0.09 0.61 0.04 95 1008.3
20260506041527 48 192 3.5 8.7 0.10 0.61 0.04 95 1008.3
20260506041006 49 200 3.5 6.1 0.09 0.60 0.03 95 1008.3
20260506040510 49 188 1.7 8.7 0.08 0.58 0.02 95 1008.3
20260506040033 49 205 3.5 8.7 0.07 0.57 0.00 95 1008.2
20260506035505 49 217 4.3 7.8 0.06 0.56 0.56 95 1008.2
20260506035006 49 201 4.3 7.8 0.07 0.56 0.56 95 1008.1
20260506034525 49 220 4.3 8.7 0.06 0.55 0.55 95 1008.1
20260506034008 49 195 4.3 8.7 0.08 0.54 0.54 95 1008.2
20260506033507 49 209 3.5 7.0 0.08 0.54 0.54 95 1008.3
20260506033020 49 223 4.3 7.8 0.08 0.52 0.52 95 1008.3
20260506032508 49 233 3.5 7.8 0.08 0.52 0.52 95 1008.3
20260506032003 49 238 4.3 7.8 0.10 0.52 0.52 95 1008.2
20260506031506 49 218 4.3 13.9 0.12 0.51 0.51 95 1008.3
20260506031003 49 220 8.7 13.9 0.16 0.51 0.51 94 1008.3
20260506030502 50 186 5.2 10.4 0.19 0.51 0.51 94 1008.5
20260506030004 50 217 7.0 10.4 0.19 0.50 0.50 94 1008.6
20260506025505 51 198 2.6 7.0 0.20 0.50 0.50 94 1008.7
20260506025004 51 189 1.7 7.0 0.19 0.49 0.49 95 1008.8
20260506024502 51 145 1.7 6.1 0.20 0.49 0.49 95 1008.8
20260506024002 51 173 1.7 6.1 0.17 0.46 0.46 95 1008.8
20260506023502 51 232 1.7 7.8 0.18 0.46 0.46 94 1008.5
20260506023007 51 226 2.6 7.8 0.17 0.45 0.45 93 1008.6
20260506022502 52 242 2.6 7.0 0.16 0.44 0.44 93 1008.7
20260506022003 53 179 2.6 7.8 0.15 0.42 0.42 93 1008.6
20260506021503 53 196 2.6 7.8 0.12 0.39 0.39 93 1008.0
20260506021004 54 161 1.7 7.8 0.08 0.35 0.35 94 1008.2
20260506020507 55 281 1.7 7.8 0.05 0.32 0.32 94 1007.9
20260506020006 55 265 2.6 7.0 0.04 0.31 0.31 94 1007.8
20260506015503 56 236 3.5 7.0 0.04 0.30 0.30 94 1007.8
20260506015003 56 241 1.7 2.6 0.04 0.30 0.30 95 1007.8
20260506014506 56 150 0.0 0.0 0.03 0.29 0.29 95 1007.8
20260506014004 56 150 0.0 0.0 0.03 0.29 0.29 95 1007.8
20260506013505 56 150 0.0 0.0 0.02 0.28 0.28 95 1007.8
20260506013004 56 150 0.0 0.0 0.03 0.28 0.28 95 1007.8
20260506012503 56 150 0.0 0.9 0.03 0.28 0.28 95 1007.8
20260506012003 56 150 0.0 1.7 0.02 0.27 0.27 95 1007.7
20260506011512 56 150 0.0 1.7 0.03 0.27 0.27 95 1007.7
20260506011005 56 150 0.0 0.0 0.03 0.27 0.27 95 1007.6
20260506010503 56 150 0.0 0.0 0.03 0.27 0.27 95 1007.7
20260506010006 56 150 0.0 0.0 0.03 0.27 0.27 95 1007.6
20260506005503 56 150 0.0 0.0 0.03 0.26 0.26 94 1007.6
20260506005003 56 150 0.0 0.0 0.04 0.26 0.26 94 1007.6
20260506004516 56 150 0.0 0.0 0.04 0.26 0.26 94 1007.7
20260506004003 56 150 0.0 0.0 0.06 0.26 0.26 94 1007.7
20260506003503 56 150 0.0 0.0 0.08 0.26 0.26 94 1007.7
20260506003006 56 150 0.0 0.0 0.08 0.25 0.25 94 1007.7
20260506002504 56 150 0.0 0.0 0.11 0.25 0.25 94 1007.7
20260506002003 56 150 0.0 0.0 0.16 0.25 0.25 94 1007.8
20260506001504 56 150 0.0 0.9 0.20 0.24 0.24 94 1007.7
20260506001004 56 150 0.0 0.9 0.21 0.24 0.24 94 1007.7
20260506000502 56 150 0.0 0.9 0.21 0.24 0.24 93 1007.8
20260506000003 56 150 0.0 0.9 0.21 0.24 0.24 93 1007.8
20260505235502 56 150 0.0 0.9 0.21 0.23 0.23 93 1007.8
20260505235003 57 145 0.0 5.2 0.20 0.22 0.22 93 1007.9
20260505234509 57 161 0.9 6.1 0.20 0.22 0.22 93 1007.9
20260505234007 57 106 0.0 7.0 0.18 0.20 0.20 92 1008.0
20260505233504 57 99 2.6 7.0 0.16 0.18 0.18 92 1008.0
20260505233020 57 120 0.0 10.4 0.15 0.17 0.17 91 1008.1
20260505232505 58 140 5.2 12.2 0.12 0.14 0.14 90 1008.2
20260505232003 59 153 4.3 12.2 0.07 0.09 0.09 90 1008.3
20260505231520 59 113 3.5 9.6 0.02 0.04 0.04 89 1008.3
20260505231007 59 156 0.0 4.3 0.01 0.03 0.03 88 1007.6
20260505230503 60 167 0.0 4.3 0.01 0.03 0.03 88 1007.4
20260505230009 60 166 0.9 4.3 0.01 0.03 0.03 88 1007.3
20260505225510 60 173 0.9 4.3 0.00 0.02 0.02 88 1007.3
20260505225003 60 195 0.0 1.7 0.00 0.02 0.02 87 1007.2
20260505224505 60 195 0.0 3.5 0.00 0.02 0.02 88 1007.2
20260505224003 60 195 0.9 3.5 0.00 0.02 0.02 88 1007.3
20260505223504 60 190 0.0 3.5 0.00 0.02 0.02 88 1007.3
20260505223005 60 190 0.0 3.5 0.00 0.02 0.02 87 1007.3
20260505222505 60 188 0.9 4.3 0.00 0.02 0.02 87 1007.3
20260505222007 61 130 0.0 4.3 0.00 0.02 0.02 87 1007.5
20260505221513 61 177 1.7 4.3 0.00 0.02 0.02 86 1007.4
20260505221003 61 159 0.0 4.3 0.00 0.02 0.02 86 1007.4
20260505220505 61 186 1.7 5.2 0.00 0.02 0.02 87 1007.5
20260505220040 61 162 0.9 5.2 0.00 0.02 0.02 86 1007.6
20260505215510 61 142 0.0 4.3 0.00 0.02 0.02 85 1007.7
20260505215004 61 124 0.0 7.0 0.00 0.02 0.02 85 1007.6
20260505214525 61 161 1.7 7.0 0.00 0.02 0.02 85 1007.6
20260505214010 62 146 0.9 6.1 0.00 0.02 0.02 86 1007.6
20260505213503 62 137 1.7 7.0 0.00 0.02 0.02 86 1007.5
20260505213006 62 134 2.6 12.2 0.00 0.02 0.02 85 1007.5
20260505212504 61 110 2.6 12.2 0.00 0.02 0.02 85 1007.5
20260505212004 61 104 5.2 10.4 0.00 0.02 0.02 85 1007.5
20260505211510 61 99 7.0 10.4 0.01 0.02 0.02 85 1007.5
20260505211005 61 76 4.3 8.7 0.01 0.02 0.02 85 1007.4
20260505210504 61 98 3.5 10.4 0.02 0.02 0.02 86 1007.5
20260505210017 61 63 5.2 12.2 0.02 0.02 0.02 86 1007.5
20260505205507 61 53 5.2 12.2 0.02 0.02 0.02 85 1007.5
20260505205008 61 109 5.2 12.2 0.02 0.02 0.02 86 1007.5
20260505204523 61 116 6.1 13.9 0.02 0.02 0.02 85 1007.5
20260505204002 61 39 5.2 13.9 0.02 0.02 0.02 86 1007.5
20260505203506 61 56 6.1 11.3 0.02 0.02 0.02 87 1007.5
20260505203024 61 75 8.7 11.3 0.02 0.02 0.02 86 1007.5
20260505202508 62 20 6.1 11.3 0.02 0.02 0.02 84 1007.6
20260505202004 62 28 4.3 11.3 0.02 0.02 0.02 83 1007.7
20260505201518 63 103 5.2 13.0 0.01 0.01 0.01 80 1007.8
20260505201004 64 75 7.8 13.0 0.01 0.01 0.01 77 1007.8
20260505200501 65 58 5.2 12.2 0.00 0.00 0.00 74 1007.8
20260505200012 66 50 7.8 12.2 0.00 0.00 0.00 70 1007.6
20260505195507 66 45 5.2 10.4 0.00 0.00 0.00 70 1007.5
20260505195007 66 23 4.3 9.6 0.00 0.00 0.00 68 1007.6
20260505194519 67 148 6.1 11.3 0.00 0.00 0.00 67 1007.6
20260505194011 67 84 6.1 11.3 0.00 0.00 0.00 67 1007.6
20260505193508 67 102 4.3 9.6 0.00 0.00 0.00 67 1007.6
20260505193033 67 91 5.2 8.7 0.00 0.00 0.00 67 1007.7
20260505192506 67 61 4.3 10.4 0.00 0.00 0.00 69 1007.6
20260505192008 67 94 4.3 11.3 0.00 0.00 0.00 69 1007.7
20260505191526 66 90 6.1 11.3 0.00 0.00 0.00 68 1007.7
20260505191009 66 102 5.2 10.4 0.00 0.00 0.00 68 1007.7
20260505190506 66 93 6.1 9.6 0.00 0.00 0.00 69 1007.8
20260505190025 66 134 2.6 9.6 0.00 0.00 0.00 70 1007.9
20260505185502 66 57 3.5 12.2 0.00 0.00 0.00 69 1008.1
20260505185003 66 84 6.1 12.2 0.00 0.00 0.00 69 1008.2
20260505184515 66 115 4.3 11.3 0.00 0.00 0.00 70 1008.2
20260505184006 65 90 7.0 14.8 0.00 0.00 0.00 69 1008.2
20260505183507 65 103 7.8 14.8 0.00 0.00 0.00 69 1008.4
20260505183019 65 94 6.1 13.9 0.00 0.00 0.00 69 1008.6
20260505182506 65 72 7.8 18.2 0.00 0.00 0.00 68 1008.7
20260505182002 65 126 8.7 18.2 0.00 0.00 0.00 69 1008.6
20260505181504 66 103 8.7 20.0 0.00 0.00 0.00 68 1008.5
20260505181003 66 67 11.3 20.0 0.00 0.00 0.00 67 1008.4
20260505180504 66 47 10.4 20.9 0.00 0.00 0.00 67 1008.3
20260505180008 66 33 12.2 20.9 0.00 0.00 0.00 67 1008.2
20260505175503 67 88 9.6 18.2 0.00 0.00 0.00 67 1008.2
20260505175003 67 59 8.7 20.0 0.00 0.00 0.00 66 1008.0
20260505174508 67 34 7.8 20.0 0.00 0.00 0.00 67 1008.0
20260505174006 67 140 8.7 20.0 0.00 0.00 0.00 66 1007.9
20260505173506 68 60 8.7 20.0 0.00 0.00 0.00 66 1008.0
20260505173002 67 37 13.0 20.0 0.00 0.00 0.00 66 1007.9
20260505172504 67 36 10.4 21.7 0.00 0.00 0.00 65 1007.9
20260505172003 67 55 12.2 21.7 0.00 0.00 0.00 65 1008.0
20260505171503 67 55 13.9 21.7 0.00 0.00 0.00 65 1007.9
20260505171003 68 69 7.8 20.9 0.00 0.00 0.00 65 1008.0
20260505170502 69 103 10.4 20.9 0.00 0.00 0.00 64 1007.8
20260505170004 69 104 8.7 17.4 0.00 0.00 0.00 65 1007.8
20260505165503 68 100 6.1 21.7 0.00 0.00 0.00 65 1007.9
20260505165004 68 46 12.2 21.7 0.00 0.00 0.00 65 1008.0
20260505164508 68 73 8.7 20.9 0.00 0.00 0.00 64 1008.0
20260505164004 68 37 5.2 18.2 0.00 0.00 0.00 64 1008.0
20260505163504 68 115 8.7 18.2 0.00 0.00 0.00 65 1007.9
20260505163011 68 67 12.2 18.2 0.00 0.00 0.00 63 1007.9
20260505162507 69 89 10.4 17.4 0.00 0.00 0.00 63 1008.0
20260505162002 69 101 7.8 14.8 0.00 0.00 0.00 63 1007.9
20260505161506 70 85 8.7 14.8 0.00 0.00 0.00 63 1007.8
20260505161009 69 58 8.7 17.4 0.00 0.00 0.00 64 1007.8
20260505160505 69 9 9.6 17.4 0.00 0.00 0.00 63 1007.6
20260505153012 68 89 7.8 16.5 0.00 0.00 0.00 68 1007.6
20260505152504 68 74 7.8 15.6 0.00 0.00 0.00 67 1007.5
20260505152005 68 83 9.6 15.6 0.00 0.00 0.00 66 1007.6
20260505151516 68 63 8.7 20.0 0.00 0.00 0.00 69 1007.4
20260505151007 68 53 7.8 20.0 0.00 0.00 0.00 67 1007.5
20260505150503 67 26 10.4 15.6 0.00 0.00 0.00 69 1007.4
20260505140505 64 33 7.8 15.6 0.00 0.00 0.00 74 1007.5
20260505125007 60 61 3.5 8.7 0.00 0.00 0.00 77 1007.1
20260505124533 60 327 3.5 7.8 0.00 0.00 0.00 76 1007.0
20260505124008 60 42 3.5 7.8 0.00 0.00 0.00 77 1006.9
20260505123507 60 348 4.3 7.8 0.00 0.00 0.00 77 1006.8
20260505123022 60 14 1.7 7.8 0.00 0.00 0.00 76 1006.9
20260505122507 60 34 3.5 7.8 0.00 0.00 0.00 76 1006.9
20260505122010 60 34 2.6 6.1 0.00 0.00 0.00 76 1006.8
20260505121519 60 17 1.7 6.1 0.00 0.00 0.00 76 1006.7
20260505121007 60 24 3.5 7.8 0.00 0.00 0.00 76 1006.7
20260505120504 60 16 2.6 7.8 0.00 0.00 0.00 75 1006.9
20260505120012 60 31 2.6 7.0 0.00 0.00 0.00 75 1006.9
20260505115506 60 32 2.6 7.0 0.00 0.00 0.00 75 1006.9
20260505115006 61 42 2.6 6.1 0.00 0.00 0.00 74 1007.0
20260505114512 61 44 2.6 7.8 0.00 0.00 0.00 74 1007.0
20260505114007 61 57 2.6 7.8 0.00 0.00 0.00 74 1007.0
20260505113507 61 23 3.5 7.8 0.00 0.00 0.00 73 1007.0
20260505113023 61 11 1.7 10.4 0.00 0.00 0.00 73 1006.8
20260505112506 61 58 5.2 10.4 0.00 0.00 0.00 73 1006.8
20260505112006 61 52 4.3 13.9 0.00 0.00 0.00 73 1006.7
20260505111526 61 42 7.8 13.9 0.00 0.00 0.00 73 1006.7
20260505111015 61 76 5.2 11.3 0.00 0.00 0.00 73 1006.7
20260505110506 61 58 5.2 11.3 0.00 0.00 0.00 72 1006.6
20260505102009 61 67 7.8 17.4 0.00 0.00 0.00 73 1006.2
20260505101528 61 39 7.8 17.4 0.00 0.00 0.00 73 1006.2
20260505101007 60 24 5.2 12.2 0.00 0.00 0.00 74 1006.2
20260505100508 60 45 5.2 14.8 0.00 0.00 0.00 74 1006.2
20260505100026 61 61 7.0 14.8 0.00 0.00 0.00 73 1006.1
20260505095506 61 80 4.3 11.3 0.00 0.00 0.00 73 1006.2
20260505095010 61 50 5.2 15.6 0.00 0.00 0.00 73 1006.1
20260505094531 61 46 7.0 15.6 0.00 0.00 0.00 73 1005.9
20260505094010 61 66 6.1 13.0 0.00 0.00 0.00 72 1006.0
20260505093507 61 51 7.0 17.4 0.00 0.00 0.00 72 1005.9
20260505093020 61 65 9.6 17.4 0.00 0.00 0.00 72 1005.8
20260505092508 61 59 5.2 12.2 0.00 0.00 0.00 72 1005.7
20260505092005 62 49 6.1 12.2 0.00 0.00 0.00 72 1005.7
20260505091503 62 42 5.2 13.0 0.00 0.00 0.00 72 1005.7
20260505091004 62 69 6.1 16.5 0.00 0.00 0.00 71 1005.6
20260505090503 62 49 7.8 20.0 0.00 0.00 0.00 71 1005.4
20260505090005 62 66 8.7 20.0 0.00 0.00 0.00 71 1005.4
20260505085504 62 70 10.4 17.4 0.00 0.00 0.00 71 1005.4
20260505085003 62 63 7.8 20.0 0.00 0.00 0.00 72 1005.3
20260505084525 62 78 9.6 20.0 0.00 0.00 0.00 72 1005.3
20260505084002 62 71 6.1 20.0 0.00 0.00 0.00 72 1005.3
20260505083503 62 61 9.6 20.0 0.00 0.00 0.00 71 1005.3
20260505083007 62 71 9.6 17.4 0.00 0.00 0.00 73 1005.3
20260505082505 62 55 8.7 17.4 0.00 0.00 0.00 73 1005.2
20260505082002 62 19 7.0 13.9 0.00 0.00 0.00 73 1005.1
20260505081515 62 53 7.8 13.9 0.00 0.00 0.00 73 1005.1
20260505081004 62 46 6.1 12.2 0.00 0.00 0.00 73 1005.0
20260505080503 62 57 6.1 12.2 0.00 0.00 0.00 73 1004.9
20260505080009 62 62 7.0 12.2 0.00 0.00 0.00 73 1004.9
20260505075504 62 33 7.0 12.2 0.00 0.00 0.00 73 1004.9
20260505075003 62 19 6.1 12.2 0.00 0.00 0.00 73 1004.9
20260505074508 62 57 7.8 12.2 0.00 0.00 0.00 71 1004.8
20260505074004 62 49 7.0 13.0 0.00 0.00 0.00 71 1004.7
20260505073503 62 50 6.1 13.0 0.00 0.00 0.00 70 1004.7
20260505073008 62 42 5.2 13.0 0.00 0.00 0.00 70 1004.6
20260505072506 62 78 7.0 13.0 0.00 0.00 0.00 70 1004.6
20260505072008 62 32 7.0 13.0 0.00 0.00 0.00 70 1004.6
20260505071508 62 82 5.2 11.3 0.00 0.00 0.00 70 1004.6
20260505071004 62 69 7.0 11.3 0.00 0.00 0.00 70 1004.6
20260505070504 63 77 6.1 13.9 0.00 0.00 0.00 70 1004.6
20260505070012 63 37 7.0 13.9 0.00 0.00 0.00 70 1004.6
20260505065506 63 48 7.8 12.2 0.00 0.00 0.00 70 1004.7
20260505065004 63 63 6.1 12.2 0.00 0.00 0.00 69 1004.7
20260505064512 63 53 7.0 12.2 0.00 0.00 0.00 69 1004.8
20260505064009 63 54 6.1 13.0 0.00 0.00 0.00 70 1004.8
20260505063504 63 52 5.2 13.9 0.00 0.00 0.00 69 1004.9
20260505063010 63 76 7.8 13.9 0.00 0.00 0.00 69 1004.9
20260505062505 63 59 7.0 13.9 0.00 0.00 0.00 69 1004.9
20260505062005 63 19 7.0 15.6 0.00 0.00 0.00 69 1004.9
20260505061518 63 71 5.2 15.6 0.00 0.00 0.00 70 1005.0
20260505061004 63 65 7.8 13.0 0.00 0.00 0.00 69 1005.0
20260505060507 63 24 7.0 13.0 0.00 0.00 0.00 69 1005.1
20260505060010 63 36 5.2 12.2 0.00 0.00 0.00 69 1005.1